Hibbing, MN

1:09 AM CST on December 12, 2017 (GMT -0600)
Chisholm-hibbing

Weather History for KHIB - June, 2013

Change the Weather History Date:

Sunday, June 2, 2013

  Actual Average Record
Temperature  
Mean Temperature 49 °F -  
Max Temperature 64 °F 69 °F 85 °F (1972)
Min Temperature 34 °F 42 °F 31 °F (1986)
Degree Days  
Heating Degree Days 16    
Moisture  
Dew Point 35 °F    
Average Humidity 61    
Maximum Humidity 89    
Minimum Humidity 31    
Precipitation  
Precipitation 0.00 in - - ()
Sea Level Pressure  
Sea Level Pressure 30.04 in    
Wind  
Wind Speed 9 mph (NNW)    
Max Wind Speed 15 mph    
Max Gust Speed 21 mph    
Visibility 10 miles    
Events      
Averages and records for this station are not official NWS values.
T = Trace of Precipitation, MM = Missing Value Source: NWS Daily Summary

Daily Weather History Graph

Daily Weather History Graph

Search for Another Location

Airport or City:

Trip Planner

Search our weather history database for the weather conditions in past years. The results will help you decide how hot, cold, wet, or windy it might be!

Date:

Astronomy

Jun. 02, 2013 Rise Set
Actual Time 5:17 AM CDT 9:01 PM CDT
Civil Twilight 4:38 AM CDT 9:40 PM CDT
Nautical Twilight 3:45 AM CDT 10:33 PM CDT
Astronomical Twilight 2:31 AM CDT 11:49 PM CDT
Moon 2:07 AM CDT (6/2) 3:12 PM CDT (6/2)
Length of Visible Light 17h 02m
Length of Day
15h 43m
Waning Crescent, 30% of the Moon is Illuminated
Jun 2
Waning Crescent
Jun 8
New
Jun 16
First Quarter
Jun 23
Full
Jun 29
Last Quarter

Hourly Weather History & Observations

Time (CDT) Temp. Windchill Dew Point Humidity Pressure Visibility Wind Dir Wind Speed Gust Speed Precip Events Conditions
12:33 AM 46.4 °F 41.1 °F 39.2 °F 76% 29.99 in 10.0 mi North 11.5 mph 17.3 mph 0.00 in   Overcast
12:53 AM 46.0 °F 41.4 °F 39.0 °F 76% 30.02 in 10.0 mi North 9.2 mph - 0.00 in   Mostly Cloudy
1:53 AM 41.0 °F 36.4 °F 36.0 °F 82% 30.04 in 10.0 mi NNW 6.9 mph - N/A   Clear
2:26 AM 44.6 °F 40.7 °F 37.4 °F 76% 30.01 in 10.0 mi NNE 6.9 mph - N/A   Mostly Cloudy
2:53 AM 43.0 °F 38.2 °F 36.0 °F 76% 30.04 in 10.0 mi North 8.1 mph - N/A   Mostly Cloudy
3:02 AM 42.8 °F 38.0 °F 35.6 °F 76% 30.01 in 10.0 mi North 8.1 mph - N/A   Scattered Clouds
3:53 AM 37.9 °F 33.5 °F 34.0 °F 86% 30.04 in 10.0 mi NNW 5.8 mph - N/A   Clear
4:53 AM 34.0 °F 28.8 °F 30.9 °F 89% 30.06 in 10.0 mi NW 5.8 mph - N/A   Clear
5:53 AM 35.1 °F 32.2 °F 32.0 °F 89% 30.07 in 10.0 mi NW 3.5 mph - N/A   Clear
6:53 AM 43.0 °F 37.7 °F 37.0 °F 80% 30.08 in 10.0 mi NNW 9.2 mph - N/A   Clear
7:53 AM 46.9 °F - 36.0 °F 66% 30.09 in 10.0 mi NNW 11.5 mph - N/A   Clear
8:53 AM 48.0 °F - 36.0 °F 63% 30.09 in 10.0 mi NW 11.5 mph - N/A   Scattered Clouds
9:53 AM 52.0 °F - 37.0 °F 57% 30.09 in 10.0 mi NNW 9.2 mph - N/A   Partly Cloudy
10:53 AM 54.0 °F - 37.0 °F 53% 30.08 in 10.0 mi NW 9.2 mph 18.4 mph N/A   Mostly Cloudy
11:53 AM 55.9 °F - 37.0 °F 49% 30.06 in 10.0 mi NNW 15.0 mph 19.6 mph N/A   Mostly Cloudy
12:53 PM 57.9 °F - 37.0 °F 46% 30.06 in 10.0 mi Variable 5.8 mph 17.3 mph N/A   Scattered Clouds
1:53 PM 60.1 °F - 37.0 °F 42% 30.04 in 10.0 mi WNW 8.1 mph 20.7 mph N/A   Partly Cloudy
2:53 PM 62.1 °F - 35.1 °F 37% 30.03 in 10.0 mi NW 12.7 mph 19.6 mph N/A   Scattered Clouds
3:53 PM 63.0 °F - 34.0 °F 34% 30.02 in 10.0 mi NNW 12.7 mph 18.4 mph N/A   Scattered Clouds
4:53 PM 63.0 °F - 35.1 °F 35% 30.01 in 10.0 mi NNW 9.2 mph - N/A   Mostly Cloudy
5:53 PM 64.0 °F - 33.1 °F 31% 30.00 in 10.0 mi NNW 9.2 mph 17.3 mph N/A   Partly Cloudy
6:53 PM 63.0 °F - 34.0 °F 34% 30.00 in 10.0 mi NW 11.5 mph - N/A   Partly Cloudy
7:53 PM 62.1 °F - 32.0 °F 32% 30.00 in 10.0 mi NNW 8.1 mph - N/A   Clear
8:53 PM 53.1 °F - 34.0 °F 48% 30.01 in 10.0 mi NNW 4.6 mph - N/A   Clear
9:53 PM 48.0 °F - 34.0 °F 58% 30.04 in 10.0 mi Calm Calm - N/A   Clear
10:53 PM 39.9 °F - 33.1 °F 77% 30.06 in 10.0 mi Calm Calm - N/A   Clear
11:53 PM 37.0 °F 34.5 °F 30.9 °F 79% 30.06 in 10.0 mi NW 3.5 mph - N/A   Clear